Weather History for Limon, CO

Change the Weather History Date:

Sunday, December 18, 2011

  Actual Average Record
Temperature  
Mean Temperature 38 °F -  
Max Temperature 63 °F - 64 °F (2013)
Min Temperature 13 °F - -11 °F (1996)
Degree Days  
Heating Degree Days 27    
Month to date heating degree days 776  
Cooling Degree Days 0    
Month to date cooling degree days 0  
Moisture  
Dew Point 12 °F    
Average Humidity 46    
Maximum Humidity 84    
Minimum Humidity 8    
Precipitation  
Precipitation 0.00 in - 0.00 in (2014)
Month to date precipitation 0.12  
Year to date precipitation  
Sea Level Pressure  
Sea Level Pressure 30.00 in    
Wind  
Wind Speed 3 mph (NW)    
Max Wind Speed 12 mph    
Max Gust Speed 15 mph    
Visibility 10 miles    
Events      
T = Trace of Precipitation, MM = Missing Value Source: NWS Daily Summary

Daily Weather History Graph

Daily Weather History Graph

Search for Another Location

Airport:

Trip Planner

Search our weather history database for the weather conditions in past years. The results will help you decide how hot, cold, wet, or windy it might be!

Date:

Astronomy

Dec. 18, 2011 Rise Set
Actual Time 7:09 AM MST 4:33 PM MST
Civil Twilight 6:38 AM MST 5:03 PM MST
Nautical Twilight 6:05 AM MST 5:37 PM MST
Astronomical Twilight 5:32 AM MST 6:10 PM MST
Moon 12:14 AM MST (12/18) 11:58 AM MST (12/18)
Length of Visible Light 10h 24m
Length of Day
9h 24m
Last Quarter, 41% of the Moon is Illuminated
Dec 18
Last Quarter
Dec 24
New
Dec 31
First Quarter
Jan 9
Full
Jan 16
Last Quarter

Hourly Weather History & Observations

Time (MST) Temp. Windchill Dew Point Humidity Pressure Visibility Wind Dir Wind Speed Gust Speed Precip Events Conditions
12:55 AM 17.1 °F - 12.0 °F 81% 30.17 in 10.0 mi Calm Calm - N/A   Clear
1:55 AM 17.1 °F 11.7 °F 12.0 °F 81% 30.14 in 10.0 mi North 3.5 mph - N/A   Clear
2:55 AM 12.9 °F 6.9 °F 9.0 °F 84% 30.14 in 10.0 mi NNW 3.5 mph - N/A   Clear
4:55 AM 19.9 °F 14.9 °F 14.0 °F 78% 30.14 in 10.0 mi West 3.5 mph - N/A   Clear
5:55 AM 21.9 °F 15.7 °F 15.1 °F 75% 30.14 in 10.0 mi Variable 4.6 mph - N/A   Clear
6:55 AM 24.1 °F 19.7 °F 14.0 °F 65% 30.15 in 10.0 mi WNW 3.5 mph - N/A   Clear
7:55 AM 28.0 °F 21.7 °F 15.1 °F 58% 30.12 in 10.0 mi NNW 5.8 mph - N/A   Clear
8:55 AM 35.1 °F 32.2 °F 19.9 °F 54% 30.06 in 10.0 mi South 3.5 mph - N/A   Clear
9:55 AM 46.9 °F - 17.1 °F 30% 30.03 in 10.0 mi Calm Calm - N/A   Clear
12:55 PM 60.1 °F - 8.1 °F 13% 29.92 in 10.0 mi South 4.6 mph - N/A   Clear
2:55 PM 62.1 °F - 3.0 °F 9% 29.88 in 10.0 mi SSE 4.6 mph - N/A   Clear
3:55 PM 55.0 °F - 7.0 °F 15% 29.87 in 10.0 mi South 3.5 mph - N/A   Clear
4:55 PM 36.0 °F - 10.9 °F 36% 29.94 in 10.0 mi Calm Calm - N/A   Clear
5:55 PM 26.1 °F 20.5 °F 12.0 °F 55% 29.98 in 10.0 mi North 4.6 mph - N/A   Clear
6:55 PM 23.0 °F 18.4 °F 12.0 °F 63% 29.98 in 10.0 mi North 3.5 mph - N/A   Clear
7:55 PM 23.0 °F 15.8 °F 12.9 °F 65% 29.96 in 10.0 mi North 5.8 mph - N/A   Clear
8:55 PM 19.9 °F - 12.9 °F 74% 29.93 in 10.0 mi Calm Calm - N/A   Clear
9:55 PM 21.0 °F 13.4 °F 12.9 °F 71% 29.88 in 10.0 mi NNW 5.8 mph - N/A   Clear
10:55 PM 19.9 °F 12.1 °F 12.9 °F 74% 29.84 in 10.0 mi NNW 5.8 mph - N/A   Clear
11:55 PM 27.0 °F 23.0 °F 16.0 °F 63% 29.81 in 10.0 mi NW 3.5 mph - N/A   Clear